Location: N�rnberg
(49.4471°N, 11.0632°E)
Time: 05:59:38
(UTC+02:00)

Oscar 19 - Visible Passes

Search period start: 21 April 2026 00:00
Search period end: 01 May 2026 00:00
Orbit: 770 x 787 km, 98.9° (Epoch: 20 April)

Date Brightness Start Highest point End Pass type
(mag) Time Alt. Az. Time Alt. Az. Time Alt. Az.
22 Apr 13.6 21:01:48 10° WSW 21:04:17 14° W 21:06:47 10° WNW visible
25 Apr 13.6 21:01:53 10° WSW 21:04:24 14° W 21:06:57 10° WNW visible
28 Apr 13.6 21:01:57 10° WSW 21:04:32 14° W 21:07:06 10° WNW visible
